Location: Newark
(54.2500°N, 9.1833°E)
Time: 21:56:07
(UTC+00:00)

A-11 Canister half - Pass Details

Date: 17 December 2019
Orbit: 1517 x 1683 km, 47.2° (Epoch: 27 January)

Event Time Altitude Azimuth Distance (km) Brightness Sun altitude
Rises 15:38:29 0° 283° (WNW) 4,830 12.3 -5.4°
Reaches altitude 10° 15:41:59 10° 274° (W) 3,866 12.0 -5.8°
Maximum altitude 15:50:16 32° 217° (SW) 2,578 11.0 -6.8°
Drops below altitude 10° 15:58:42 10° 160° (SSE) 3,933 11.3 -7.9°
Sets 16:02:19 0° 151° (SSE) 4,925 11.7 -8.3°
